Location: Namasale
(1.5000°N, 32.6167°E)
Time: 22:44:49
(UTC+00:00)

Vanguard 3 - Pass Details

Date: 23 April 2021
Orbit: 507 x 3262 km, 33.4° (Epoch: 16 May)

Event Time Altitude Azimuth Distance (km) Brightness Sun altitude
Rises 18:16:57 0° 237° (WSW) 7,044 12.4 -35.8°
Reaches altitude 10° 18:22:06 10° 238° (WSW) 5,793 11.8 -37.0°
Maximum altitude 18:38:45 77° 322° (NW) 2,074 9.0 -41.0°
Enters shadow 18:39:49 73° 4° (N) 2,030 8.9 -41.2°
